Hourly Data Report for October 20, 2016

All times are specified in Local Standard Time (LST). Add 1 hour to adjust for Daylight Saving Time where and when it is observed.

KUGAARUK CLIMATE
NUNAVUT

68°32'15.060" N
89°47'47.020" W
15.80 m
2303094
71407
NBB

Download Data

Hourly Data (October 2016)
Hourly Data Report for October 20, 2016
Temp Definition
°C
Dew Point Temp Definition
°C
Rel Hum Definition
%
Wind Dir Definition
10's deg

Wind Spd Definition
km/h
Visibility Definition
km
Stn Press Definition
kPa
Hmdx Definition


Wind Chill Definition


Weather Definition


TIME
00:00 -6.8 -9.9 79 30 31   100.76   -15 LegendNANA
01:00 -7.9 -11.1 78 29 26   100.83   -16 LegendNANA
02:00 -8.8 -11.3 82 29 31   100.87   -18 LegendNANA
03:00 -9.1 -11.8 81 30 30   100.95   -18 LegendNANA
04:00 -9.3 -12.4 78 30 25   100.99   -18 LegendNANA
05:00 -9.5 -12.6 78 30 28   101.01   -19 LegendNANA
06:00 -9.5 -12.5 79 30 28   101.04   -19 LegendNANA
07:00 -9.2 -12.3 78 30 32   101.03   -19 LegendNANA
08:00 -8.9 -12.9 73 30 34   101.06   -19 LegendNANA
09:00 -8.9 -12.9 72 31 20   101.11   -16 LegendNANA
10:00 -8.5 -11.8 77 28 24   101.13   -17 LegendNANA
11:00 -8.4 -10.7 84 30 21   101.14   -16 LegendNANA
12:00 -8.6 -11.2 81 32 16   101.14   -15 LegendNANA
13:00 -8.2 -11.4 78 32 10   101.17   -13 LegendNANA
14:00 -8.6 -11.9 77 32 12   101.22   -14 LegendNANA
15:00 -8.8 -13.9 66 32 17   101.26   -16 LegendNANA
16:00 -9.5 -13.5 73 30 14   101.30   -16 LegendNANA
17:00 -10.6 -14.2 75 29 11   101.34   -16 LegendNANA
18:00 -11.4 -13.5 84 24 10   101.37   -17 LegendNANA
19:00 -10.9 -12.5 88 27 2   101.39   -12 LegendNANA
20:00 -9.7 -12.2 82 32 10   101.44   -15 LegendNANA
21:00 -10.3 -12.6 84 32 7   101.47   -14 LegendNANA
22:00 -10.6 -12.9 83 34 9   101.50   -16 LegendNANA
23:00 -10.1 -11.9 87 27 11   101.52   -16 LegendNANA

Notes on Data Quality.

Legend

  • E = Estimated
  • M = Missing
  • NA = Not Available
  • ‡ = Partner data that is not subject to review by the National Climate Archives
Date modified: